| time (UTC) | temp C | wind direction | speed KPH | gust KPH | rain 1hr cm | rain 24hr cm | rain mn cm | humidity % | barometer mb |
| 20260507030554 | 15 | 183 | 0.0 | 6.4 | 0.00 | 0.00 | 0.00 | 88 | 1018.8 |
| 20260507030055 | 15 | 0 | 0.0 | 4.8 | 0.00 | 0.00 | 0.00 | 87 | 1018.8 |
| 20260507025553 | 15 | 0 | 0.0 | 4.8 | 0.00 | 0.00 | 0.00 | 87 | 1018.8 |
| 20260507025054 | 15 | 0 | 0.0 | 4.8 | 0.00 | 0.00 | 0.00 | 87 | 1018.9 |
| 20260507024557 | 15 | 307 | 0.0 | 4.8 | 0.00 | 0.00 | 0.00 | 87 | 1018.9 |
| 20260507024053 | 15 | 176 | 0.0 | 11.3 | 0.00 | 0.00 | 0.00 | 86 | 1018.9 |
| 20260507023554 | 15 | 0 | 1.6 | 11.3 | 0.00 | 0.00 | 0.00 | 86 | 1018.7 |
| 20260507023055 | 15 | 227 | 0.0 | 11.3 | 0.00 | 0.00 | 0.00 | 86 | 1018.8 |
| 20260507022555 | 15 | 235 | 3.2 | 11.3 | 0.00 | 0.00 | 0.00 | 86 | 1018.7 |
| 20260507022055 | 15 | 221 | 3.2 | 12.9 | 0.00 | 0.00 | 0.00 | 85 | 1018.7 |
| 20260507021602 | 15 | 162 | 6.4 | 16.1 | 0.00 | 0.00 | 0.00 | 85 | 1018.7 |
| 20260507021055 | 15 | 0 | 1.6 | 16.1 | 0.00 | 0.00 | 0.00 | 85 | 1018.8 |
| 20260507020555 | 15 | 162 | 4.8 | 11.3 | 0.00 | 0.00 | 0.00 | 85 | 1018.8 |
| 20260507015554 | 16 | 161 | 1.6 | 8.0 | 0.00 | 0.00 | 0.00 | 84 | 1018.8 |
| 20260507015054 | 16 | 255 | 1.6 | 11.3 | 0.00 | 0.00 | 0.00 | 84 | 1018.7 |
| 20260507014559 | 16 | 0 | 1.6 | 11.3 | 0.00 | 0.00 | 0.00 | 84 | 1018.6 |
| 20260507014052 | 16 | 158 | 1.6 | 8.0 | 0.00 | 0.00 | 0.00 | 84 | 1018.8 |
| 20260507013553 | 16 | 188 | 1.6 | 8.0 | 0.00 | 0.00 | 0.00 | 84 | 1018.7 |
| 20260507013117 | 16 | 0 | 1.6 | 8.0 | 0.00 | 0.00 | 0.00 | 84 | 1018.7 |
| 20260507012555 | 16 | 267 | 3.2 | 14.5 | 0.00 | 0.00 | 0.00 | 84 | 1018.7 |
| 20260507012054 | 16 | 133 | 3.2 | 14.5 | 0.00 | 0.00 | 0.00 | 83 | 1018.6 |
| 20260507011612 | 16 | 201 | 4.8 | 11.3 | 0.00 | 0.00 | 0.00 | 83 | 1018.6 |
| 20260507011054 | 16 | 161 | 3.2 | 17.7 | 0.00 | 0.00 | 0.00 | 83 | 1018.6 |
| 20260507010554 | 16 | 0 | 3.2 | 17.7 | 0.00 | 0.00 | 0.00 | 83 | 1018.7 |
| 20260507010109 | 16 | 197 | 6.4 | 17.7 | 0.00 | 0.00 | 0.00 | 83 | 1018.7 |
| 20260507005556 | 16 | 205 | 4.8 | 16.1 | 0.00 | 0.00 | 0.00 | 83 | 1018.7 |
| 20260507005054 | 16 | 209 | 3.2 | 11.3 | 0.00 | 0.00 | 0.00 | 82 | 1018.7 |
| 20260507004605 | 16 | 0 | 1.6 | 19.3 | 0.00 | 0.00 | 0.00 | 83 | 1018.6 |
| 20260507004056 | 16 | 269 | 3.2 | 19.3 | 0.00 | 0.00 | 0.00 | 83 | 1018.7 |
| 20260507003554 | 16 | 211 | 6.4 | 19.3 | 0.00 | 0.00 | 0.00 | 83 | 1018.7 |
| 20260507003059 | 16 | 246 | 6.4 | 17.7 | 0.00 | 0.00 | 0.00 | 82 | 1018.6 |
| 20260507002554 | 16 | 0 | 3.2 | 22.5 | 0.00 | 0.00 | 0.00 | 83 | 1018.6 |
| 20260507002054 | 16 | 259 | 4.8 | 22.5 | 0.00 | 0.00 | 0.00 | 83 | 1018.6 |
| 20260507001558 | 16 | 244 | 6.4 | 22.5 | 0.00 | 0.00 | 0.00 | 81 | 1018.7 |
| 20260507001053 | 16 | 0 | 3.2 | 19.3 | 0.00 | 0.00 | 0.00 | 82 | 1018.8 |
| 20260507000555 | 16 | 223 | 3.2 | 19.3 | 0.00 | 0.00 | 0.00 | 82 | 1018.7 |
| 20260507000057 | 17 | 233 | 4.8 | 19.3 | 0.00 | 0.00 | 0.00 | 80 | 1018.8 |
| 20260506235556 | 17 | 192 | 3.2 | 17.7 | 0.00 | 0.00 | 0.00 | 81 | 1018.7 |
| 20260506235054 | 17 | 263 | 3.2 | 17.7 | 0.00 | 0.00 | 0.00 | 83 | 1018.9 |
| 20260506234558 | 16 | 294 | 4.8 | 19.3 | 0.00 | 0.00 | 0.00 | 82 | 1018.9 |
| 20260506234056 | 16 | 250 | 4.8 | 19.3 | 0.00 | 0.00 | 0.00 | 82 | 1018.9 |
| 20260506233555 | 16 | 248 | 4.8 | 16.1 | 0.00 | 0.00 | 0.00 | 82 | 1018.9 |
| 20260506233105 | 16 | 308 | 6.4 | 22.5 | 0.00 | 0.00 | 0.00 | 82 | 1018.9 |
| 20260506232555 | 16 | 211 | 8.0 | 22.5 | 0.00 | 0.00 | 0.00 | 81 | 1018.9 |
| 20260506232054 | 17 | 264 | 3.2 | 17.7 | 0.00 | 0.00 | 0.00 | 81 | 1019.0 |
| 20260506231605 | 17 | 253 | 6.4 | 17.7 | 0.00 | 0.00 | 0.00 | 79 | 1019.0 |
| 20260506231055 | 17 | 309 | 4.8 | 17.7 | 0.00 | 0.00 | 0.00 | 79 | 1019.0 |
| 20260506230554 | 17 | 267 | 4.8 | 17.7 | 0.00 | 0.00 | 0.00 | 79 | 1018.9 |
| 20260506230105 | 17 | 299 | 3.2 | 14.5 | 0.00 | 0.00 | 0.00 | 79 | 1019.0 |
| 20260506225559 | 17 | 205 | 4.8 | 14.5 | 0.00 | 0.00 | 0.00 | 79 | 1019.0 |
| 20260506225056 | 17 | 230 | 4.8 | 14.5 | 0.00 | 0.00 | 0.00 | 79 | 1019.2 |
| 20260506224555 | 17 | 250 | 6.4 | 16.1 | 0.00 | 0.00 | 0.00 | 78 | 1019.2 |
| 20260506224054 | 17 | 258 | 3.2 | 16.1 | 0.00 | 0.00 | 0.00 | 79 | 1019.2 |
| 20260506223555 | 17 | 251 | 4.8 | 16.1 | 0.00 | 0.00 | 0.00 | 78 | 1019.3 |
| 20260506223057 | 17 | 198 | 4.8 | 16.1 | 0.00 | 0.00 | 0.00 | 79 | 1019.4 |
| 20260506222556 | 17 | 200 | 4.8 | 16.1 | 0.00 | 0.00 | 0.00 | 78 | 1019.4 |
| 20260506222054 | 17 | 252 | 4.8 | 16.1 | 0.00 | 0.00 | 0.00 | 79 | 1019.5 |
| 20260506221600 | 17 | 230 | 3.2 | 20.9 | 0.00 | 0.00 | 0.00 | 80 | 1019.5 |
| 20260506221057 | 17 | 267 | 6.4 | 20.9 | 0.00 | 0.00 | 0.00 | 80 | 1019.6 |
| 20260506220557 | 17 | 289 | 6.4 | 19.3 | 0.00 | 0.00 | 0.00 | 79 | 1019.6 |
| 20260506220059 | 17 | 236 | 6.4 | 19.3 | 0.00 | 0.00 | 0.00 | 79 | 1019.8 |
| 20260506215558 | 18 | 301 | 6.4 | 17.7 | 0.00 | 0.00 | 0.00 | 77 | 1019.9 |
| 20260506215054 | 18 | 169 | 3.2 | 16.1 | 0.00 | 0.00 | 0.00 | 78 | 1019.9 |
| 20260506214601 | 18 | 232 | 6.4 | 16.1 | 0.00 | 0.00 | 0.00 | 77 | 1019.9 |
| 20260506214054 | 18 | 306 | 3.2 | 16.1 | 0.00 | 0.00 | 0.00 | 77 | 1019.8 |
| 20260506213555 | 18 | 290 | 6.4 | 14.5 | 0.00 | 0.00 | 0.00 | 77 | 1019.9 |
| 20260506213057 | 18 | 238 | 3.2 | 14.5 | 0.00 | 0.00 | 0.00 | 76 | 1020.0 |
| 20260506212554 | 18 | 200 | 4.8 | 14.5 | 0.00 | 0.00 | 0.00 | 75 | 1019.9 |
| 20260506212055 | 18 | 285 | 4.8 | 16.1 | 0.00 | 0.00 | 0.00 | 75 | 1019.9 |
| 20260506211607 | 18 | 0 | 3.2 | 16.1 | 0.00 | 0.00 | 0.00 | 75 | 1019.9 |
| 20260506211055 | 18 | 205 | 3.2 | 14.5 | 0.00 | 0.00 | 0.00 | 76 | 1020.0 |
| 20260506210555 | 18 | 262 | 4.8 | 14.5 | 0.00 | 0.00 | 0.00 | 74 | 1019.9 |
| 20260506210054 | 19 | 202 | 3.2 | 14.5 | 0.00 | 0.00 | 0.00 | 74 | 1019.8 |
| 20260506205554 | 19 | 248 | 3.2 | 14.5 | 0.00 | 0.00 | 0.00 | 74 | 1019.9 |
| 20260506205054 | 19 | 234 | 3.2 | 14.5 | 0.00 | 0.00 | 0.00 | 73 | 1019.9 |
| 20260506204600 | 19 | 241 | 1.6 | 11.3 | 0.00 | 0.00 | 0.00 | 73 | 1020.0 |
| 20260506204058 | 19 | 215 | 0.0 | 11.3 | 0.00 | 0.00 | 0.00 | 74 | 1019.9 |
| 20260506203555 | 19 | 244 | 1.6 | 11.3 | 0.00 | 0.00 | 0.00 | 74 | 1020.0 |
| 20260506203059 | 19 | 240 | 1.6 | 11.3 | 0.00 | 0.00 | 0.00 | 73 | 1020.0 |
| 20260506202555 | 19 | 245 | 1.6 | 9.7 | 0.00 | 0.00 | 0.00 | 74 | 1020.1 |
| 20260506202055 | 19 | 220 | 1.6 | 9.7 | 0.00 | 0.00 | 0.00 | 73 | 1020.1 |
| 20260506201553 | 18 | 0 | 3.2 | 9.7 | 0.00 | 0.00 | 0.00 | 74 | 1020.2 |
| 20260506201051 | 18 | 209 | 1.6 | 8.0 | 0.00 | 0.00 | 0.00 | 72 | 1020.3 |
| 20260506200555 | 18 | 248 | 0.0 | 8.0 | 0.00 | 0.00 | 0.00 | 73 | 1020.3 |
| 20260506200055 | 18 | 300 | 1.6 | 11.3 | 0.00 | 0.00 | 0.00 | 75 | 1020.3 |
| 20260506195556 | 18 | 0 | 3.2 | 11.3 | 0.00 | 0.00 | 0.00 | 74 | 1020.4 |
| 20260506195056 | 18 | 0 | 1.6 | 8.0 | 0.00 | 0.00 | 0.00 | 74 | 1020.4 |
| 20260506194556 | 18 | 238 | 3.2 | 6.4 | 0.00 | 0.00 | 0.00 | 73 | 1020.4 |
| 20260506194055 | 18 | 223 | 0.0 | 8.0 | 0.00 | 0.00 | 0.00 | 75 | 1020.4 |
| 20260506193554 | 17 | 259 | 1.6 | 8.0 | 0.00 | 0.00 | 0.00 | 75 | 1020.5 |
| 20260506193055 | 17 | 276 | 0.0 | 4.8 | 0.00 | 0.00 | 0.00 | 75 | 1020.5 |
| 20260506192554 | 17 | 194 | 0.0 | 4.8 | 0.00 | 0.00 | 0.00 | 76 | 1020.6 |
| 20260506192056 | 17 | 215 | 1.6 | 8.0 | 0.00 | 0.00 | 0.00 | 76 | 1020.6 |
| 20260506191553 | 17 | 223 | 1.6 | 9.7 | 0.00 | 0.00 | 0.00 | 77 | 1020.6 |
| 20260506191054 | 16 | 0 | 3.2 | 9.7 | 0.00 | 0.00 | 0.00 | 77 | 1020.6 |
| 20260506190554 | 16 | 214 | 1.6 | 9.7 | 0.00 | 0.00 | 0.00 | 77 | 1020.7 |
| 20260506190058 | 16 | 244 | 3.2 | 12.9 | 0.00 | 0.00 | 0.00 | 75 | 1020.8 |
| 20260506185556 | 17 | 216 | 1.6 | 12.9 | 0.00 | 0.00 | 0.00 | 74 | 1020.7 |
| 20260506185054 | 17 | 217 | 1.6 | 8.0 | 0.00 | 0.00 | 0.00 | 74 | 1020.8 |
| 20260506184601 | 17 | 300 | 3.2 | 8.0 | 0.00 | 0.00 | 0.00 | 73 | 1020.8 |
| 20260506184056 | 17 | 0 | 1.6 | 11.3 | 0.00 | 0.00 | 0.00 | 74 | 1020.7 |
| 20260506183554 | 17 | 259 | 1.6 | 11.3 | 0.00 | 0.00 | 0.00 | 74 | 1020.8 |
| 20260506183056 | 17 | 248 | 3.2 | 11.3 | 0.00 | 0.00 | 0.00 | 73 | 1021.0 |
| 20260506182554 | 17 | 233 | 3.2 | 11.3 | 0.00 | 0.00 | 0.00 | 73 | 1020.9 |
| 20260506182055 | 17 | 0 | 3.2 | 11.3 | 0.00 | 0.00 | 0.00 | 74 | 1021.0 |
| 20260506181556 | 17 | 263 | 4.8 | 11.3 | 0.00 | 0.00 | 0.00 | 73 | 1020.8 |
| 20260506181056 | 17 | 0 | 1.6 | 8.0 | 0.00 | 0.00 | 0.00 | 74 | 1020.8 |
| 20260506180556 | 17 | 284 | 0.0 | 11.3 | 0.00 | 0.00 | 0.00 | 75 | 1020.8 |
| 20260506180059 | 17 | 310 | 1.6 | 11.3 | 0.00 | 0.00 | 0.00 | 75 | 1020.8 |
| 20260506175557 | 17 | 214 | 3.2 | 11.3 | 0.00 | 0.00 | 0.00 | 75 | 1020.9 |
| 20260506175054 | 17 | 250 | 1.6 | 11.3 | 0.00 | 0.00 | 0.00 | 75 | 1020.8 |
| 20260506174554 | 17 | 0 | 1.6 | 9.7 | 0.00 | 0.00 | 0.00 | 75 | 1020.8 |
| 20260506174055 | 17 | 250 | 1.6 | 8.0 | 0.00 | 0.00 | 0.00 | 76 | 1020.8 |
| 20260506173555 | 17 | 238 | 3.2 | 8.0 | 0.00 | 0.00 | 0.00 | 75 | 1020.9 |
| 20260506173108 | 17 | 207 | 1.6 | 6.4 | 0.00 | 0.00 | 0.00 | 75 | 1020.9 |
| 20260506172555 | 17 | 273 | 0.0 | 8.0 | 0.00 | 0.00 | 0.00 | 77 | 1021.0 |
| 20260506172054 | 17 | 0 | 0.0 | 8.0 | 0.00 | 0.00 | 0.00 | 78 | 1021.0 |
| 20260506171602 | 16 | 0 | 1.6 | 9.7 | 0.00 | 0.00 | 0.00 | 78 | 1021.1 |
| 20260506171057 | 16 | 254 | 3.2 | 11.3 | 0.00 | 0.00 | 0.00 | 77 | 1021.2 |
| 20260506170555 | 16 | 219 | 1.6 | 11.3 | 0.00 | 0.00 | 0.00 | 76 | 1021.2 |
| 20260506170100 | 16 | 0 | 1.6 | 8.0 | 0.00 | 0.00 | 0.00 | 77 | 1021.2 |
| 20260506165555 | 16 | 292 | 0.0 | 8.0 | 0.00 | 0.00 | 0.00 | 78 | 1021.1 |
| 20260506165053 | 16 | 253 | 1.6 | 8.0 | 0.00 | 0.00 | 0.00 | 79 | 1020.9 |
| 20260506164613 | 16 | 295 | 1.6 | 8.0 | 0.00 | 0.00 | 0.00 | 80 | 1020.9 |
| 20260506164054 | 16 | 223 | 1.6 | 6.4 | 0.00 | 0.00 | 0.00 | 79 | 1021.0 |
| 20260506163554 | 16 | 245 | 1.6 | 6.4 | 0.00 | 0.00 | 0.00 | 80 | 1021.1 |
| 20260506163102 | 16 | 0 | 0.0 | 6.4 | 0.00 | 0.00 | 0.00 | 81 | 1021.1 |
| 20260506162555 | 15 | 0 | 0.0 | 6.4 | 0.00 | 0.00 | 0.00 | 80 | 1021.1 |
| 20260506162055 | 15 | 232 | 0.0 | 4.8 | 0.00 | 0.00 | 0.00 | 80 | 1021.1 |
| 20260506161556 | 15 | 216 | 0.0 | 4.8 | 0.00 | 0.00 | 0.00 | 80 | 1021.0 |
| 20260506161055 | 15 | 0 | 0.0 | 4.8 | 0.00 | 0.00 | 0.00 | 80 | 1021.1 |
| 20260506160554 | 15 | 291 | 0.0 | 6.4 | 0.00 | 0.00 | 0.00 | 80 | 1021.0 |
| 20260506160107 | 15 | 0 | 0.0 | 6.4 | 0.00 | 0.00 | 0.00 | 81 | 1020.9 |
| 20260506155555 | 15 | 193 | 1.6 | 6.4 | 0.00 | 0.00 | 0.00 | 80 | 1021.1 |
| 20260506155055 | 15 | 0 | 0.0 | 4.8 | 0.00 | 0.00 | 0.00 | 80 | 1021.1 |
| 20260506154556 | 15 | 236 | 1.6 | 4.8 | 0.00 | 0.00 | 0.00 | 80 | 1021.1 |
| 20260506154055 | 15 | 289 | 1.6 | 4.8 | 0.00 | 0.00 | 0.00 | 80 | 1021.1 |
| 20260506153554 | 15 | 0 | 0.0 | 4.8 | 0.00 | 0.00 | 0.00 | 81 | 1021.1 |
| 20260506153101 | 15 | 219 | 0.0 | 4.8 | 0.00 | 0.00 | 0.00 | 80 | 1021.1 |
| 20260506152555 | 15 | 0 | 0.0 | 4.8 | 0.00 | 0.00 | 0.00 | 81 | 1021.0 |
| 20260506152055 | 15 | 0 | 0.0 | 6.4 | 0.00 | 0.00 | 0.00 | 80 | 1021.0 |
| 20260506151556 | 15 | 303 | 0.0 | 6.4 | 0.00 | 0.00 | 0.00 | 80 | 1021.0 |
| 20260506151055 | 15 | 0 | 0.0 | 1.6 | 0.00 | 0.00 | 0.00 | 81 | 1021.1 |
| 20260506150555 | 15 | 0 | 0.0 | 1.6 | 0.00 | 0.00 | 0.00 | 83 | 1021.0 |
| 20260506150055 | 15 | 0 | 0.0 | 1.6 | 0.00 | 0.00 | 0.00 | 83 | 1021.0 |
| 20260506145558 | 14 | 0 | 0.0 | 1.6 | 0.00 | 0.00 | 0.00 | 83 | 1021.0 |
| 20260506145052 | 14 | 0 | 0.0 | 1.6 | 0.00 | 0.00 | 0.00 | 85 | 1021.0 |
| 20260506144555 | 14 | 0 | 0.0 | 1.6 | 0.00 | 0.00 | 0.00 | 85 | 1020.9 |
| 20260506144052 | 13 | 0 | 0.0 | 1.6 | 0.00 | 0.00 | 0.00 | 85 | 1020.9 |
| 20260506143556 | 13 | 0 | 0.0 | 0.0 | 0.00 | 0.00 | 0.00 | 85 | 1020.8 |
| 20260506143056 | 13 | 0 | 0.0 | 0.0 | 0.00 | 0.00 | 0.00 | 86 | 1020.8 |
| 20260506142556 | 13 | 0 | 0.0 | 0.0 | 0.00 | 0.00 | 0.00 | 87 | 1020.8 |
| 20260506142055 | 13 | 0 | 0.0 | 0.0 | 0.00 | 0.00 | 0.00 | 87 | 1020.8 |
| 20260506141612 | 13 | 0 | 0.0 | 0.0 | 0.00 | 0.00 | 0.00 | 87 | 1020.7 |
| 20260506141057 | 13 | 0 | 0.0 | 0.0 | 0.00 | 0.00 | 0.00 | 88 | 1020.5 |
| 20260506140558 | 13 | 0 | 0.0 | 0.0 | 0.00 | 0.00 | 0.00 | 88 | 1020.4 |
| 20260506140056 | 12 | 0 | 0.0 | 0.0 | 0.00 | 0.00 | 0.00 | 88 | 1020.4 |
| 20260506135555 | 12 | 0 | 0.0 | 0.0 | 0.00 | 0.00 | 0.00 | 87 | 1020.3 |
| 20260506135056 | 12 | 0 | 0.0 | 0.0 | 0.00 | 0.00 | 0.00 | 87 | 1020.3 |
| 20260506134558 | 12 | 0 | 0.0 | 0.0 | 0.00 | 0.00 | 0.00 | 87 | 1020.3 |
| 20260506134138 | 12 | 0 | 0.0 | 0.0 | 0.00 | 0.00 | 0.00 | 87 | 1020.2 |
| 20260506133554 | 12 | 0 | 0.0 | 0.0 | 0.00 | 0.00 | 0.00 | 87 | 1020.2 |
| 20260506133105 | 12 | 0 | 0.0 | 0.0 | 0.00 | 0.00 | 0.00 | 87 | 1020.2 |
| 20260506132555 | 12 | 0 | 0.0 | 0.0 | 0.00 | 0.00 | 0.00 | 87 | 1020.2 |
| 20260506132054 | 12 | 0 | 0.0 | 0.0 | 0.00 | 0.00 | 0.00 | 87 | 1020.1 |
| 20260506131556 | 12 | 0 | 0.0 | 0.0 | 0.00 | 0.00 | 0.00 | 87 | 1020.1 |
| 20260506131055 | 12 | 0 | 0.0 | 0.0 | 0.00 | 0.00 | 0.00 | 87 | 1020.0 |
| 20260506130556 | 12 | 0 | 0.0 | 0.0 | 0.00 | 0.00 | 0.00 | 86 | 1019.9 |
| 20260506130056 | 12 | 0 | 0.0 | 0.0 | 0.00 | 0.00 | 0.00 | 86 | 1019.9 |
| 20260506125554 | 12 | 0 | 0.0 | 0.0 | 0.00 | 0.00 | 0.00 | 86 | 1020.0 |
| 20260506125054 | 12 | 0 | 0.0 | 0.0 | 0.00 | 0.00 | 0.00 | 86 | 1020.0 |
| 20260506124555 | 12 | 0 | 0.0 | 0.0 | 0.00 | 0.00 | 0.00 | 86 | 1019.9 |
| 20260506124054 | 12 | 0 | 0.0 | 0.0 | 0.00 | 0.00 | 0.00 | 86 | 1019.7 |
| 20260506123555 | 12 | 0 | 0.0 | 0.0 | 0.00 | 0.00 | 0.00 | 86 | 1019.8 |
| 20260506123055 | 12 | 0 | 0.0 | 0.0 | 0.00 | 0.00 | 0.00 | 86 | 1019.8 |
| 20260506122556 | 12 | 0 | 0.0 | 0.0 | 0.00 | 0.00 | 0.00 | 86 | 1019.8 |
| 20260506122054 | 12 | 0 | 0.0 | 0.0 | 0.00 | 0.00 | 0.00 | 86 | 1019.8 |
| 20260506121602 | 12 | 0 | 0.0 | 0.0 | 0.00 | 0.00 | 0.00 | 86 | 1019.7 |
| 20260506121054 | 12 | 0 | 0.0 | 0.0 | 0.00 | 0.00 | 0.00 | 86 | 1019.7 |
| 20260506120555 | 12 | 0 | 0.0 | 0.0 | 0.00 | 0.00 | 0.00 | 86 | 1019.7 |
| 20260506120118 | 12 | 0 | 0.0 | 0.0 | 0.00 | 0.00 | 0.00 | 86 | 1019.7 |
| 20260506115554 | 12 | 0 | 0.0 | 0.0 | 0.00 | 0.00 | 0.00 | 86 | 1019.7 |
| 20260506115055 | 12 | 0 | 0.0 | 0.0 | 0.00 | 0.00 | 0.00 | 86 | 1019.7 |
| 20260506114600 | 12 | 0 | 0.0 | 0.0 | 0.00 | 0.00 | 0.00 | 86 | 1019.6 |
| 20260506114055 | 12 | 0 | 0.0 | 1.6 | 0.00 | 0.00 | 0.00 | 85 | 1019.5 |
| 20260506113555 | 12 | 0 | 0.0 | 3.2 | 0.00 | 0.00 | 0.00 | 85 | 1019.5 |
| 20260506113109 | 12 | 290 | 0.0 | 3.2 | 0.00 | 0.00 | 0.00 | 85 | 1019.5 |
| 20260506112555 | 12 | 0 | 0.0 | 4.8 | 0.00 | 0.00 | 0.00 | 85 | 1019.5 |
| 20260506112054 | 12 | 0 | 0.0 | 4.8 | 0.00 | 0.00 | 0.00 | 85 | 1019.4 |
| 20260506111558 | 12 | 0 | 0.0 | 4.8 | 0.00 | 0.00 | 0.00 | 85 | 1019.4 |
| 20260506111054 | 12 | 234 | 0.0 | 3.2 | 0.00 | 0.00 | 0.00 | 85 | 1019.4 |
| 20260506110556 | 12 | 0 | 0.0 | 1.6 | 0.00 | 0.00 | 0.00 | 85 | 1019.3 |
| 20260506105555 | 12 | 0 | 0.0 | 1.6 | 0.00 | 0.00 | 0.00 | 85 | 1019.3 |
| 20260506105055 | 12 | 0 | 0.0 | 3.2 | 0.00 | 0.00 | 0.00 | 85 | 1019.3 |
| 20260506104555 | 12 | 0 | 0.0 | 3.2 | 0.00 | 0.00 | 0.00 | 85 | 1019.3 |
| 20260506104055 | 12 | 0 | 0.0 | 1.6 | 0.00 | 0.00 | 0.00 | 85 | 1019.3 |
| 20260506103555 | 12 | 0 | 0.0 | 1.6 | 0.00 | 0.00 | 0.00 | 85 | 1019.3 |
| 20260506103057 | 12 | 0 | 0.0 | 3.2 | 0.00 | 0.00 | 0.00 | 85 | 1019.3 |
| 20260506102555 | 12 | 0 | 0.0 | 3.2 | 0.00 | 0.00 | 0.00 | 85 | 1019.3 |
| 20260506102055 | 12 | 298 | 0.0 | 4.8 | 0.00 | 0.00 | 0.00 | 85 | 1019.3 |
| 20260506101556 | 12 | 0 | 0.0 | 4.8 | 0.00 | 0.00 | 0.00 | 85 | 1019.2 |
| 20260506101054 | 12 | 0 | 0.0 | 3.2 | 0.00 | 0.00 | 0.00 | 85 | 1019.2 |
| 20260506100555 | 12 | 308 | 0.0 | 3.2 | 0.00 | 0.00 | 0.00 | 85 | 1019.2 |
| 20260506100057 | 12 | 0 | 0.0 | 3.2 | 0.00 | 0.00 | 0.00 | 85 | 1019.2 |
| 20260506095555 | 12 | 0 | 0.0 | 3.2 | 0.00 | 0.03 | 0.00 | 86 | 1019.3 |
| 20260506095055 | 12 | 0 | 0.0 | 3.2 | 0.00 | 0.03 | 0.00 | 86 | 1019.3 |
| 20260506094555 | 12 | 307 | 0.0 | 4.8 | 0.00 | 0.03 | 0.00 | 86 | 1019.3 |
| 20260506094054 | 12 | 307 | 0.0 | 4.8 | 0.00 | 0.03 | 0.00 | 86 | 1019.3 |
| 20260506093554 | 12 | 286 | 0.0 | 4.8 | 0.00 | 0.03 | 0.00 | 87 | 1019.3 |
| 20260506093058 | 12 | 0 | 0.0 | 0.0 | 0.00 | 0.03 | 0.00 | 87 | 1019.3 |
| 20260506092556 | 12 | 0 | 0.0 | 0.0 | 0.00 | 0.03 | 0.00 | 87 | 1019.3 |
| 20260506092056 | 12 | 0 | 0.0 | 0.0 | 0.00 | 0.03 | 0.00 | 87 | 1019.3 |
| 20260506091559 | 12 | 0 | 0.0 | 0.0 | 0.00 | 0.03 | 0.00 | 87 | 1019.2 |
| 20260506091054 | 12 | 0 | 0.0 | 0.0 | 0.00 | 0.03 | 0.00 | 86 | 1019.4 |
| 20260506090554 | 12 | 0 | 0.0 | 0.0 | 0.00 | 0.03 | 0.00 | 86 | 1019.2 |
| 20260506090058 | 12 | 0 | 0.0 | 0.0 | 0.00 | 0.03 | 0.00 | 86 | 1019.2 |
| 20260506085554 | 12 | 0 | 0.0 | 0.0 | 0.00 | 0.13 | 0.00 | 85 | 1019.3 |
| 20260506085055 | 12 | 0 | 0.0 | 0.0 | 0.00 | 0.13 | 0.00 | 85 | 1019.2 |
| 20260506084555 | 12 | 0 | 0.0 | 0.0 | 0.00 | 0.13 | 0.00 | 85 | 1019.3 |
| 20260506084055 | 12 | 0 | 0.0 | 1.6 | 0.00 | 0.13 | 0.00 | 85 | 1019.3 |
| 20260506083554 | 12 | 0 | 0.0 | 3.2 | 0.00 | 0.13 | 0.00 | 85 | 1019.2 |
| 20260506083057 | 12 | 0 | 0.0 | 3.2 | 0.00 | 0.13 | 0.00 | 85 | 1019.3 |
| 20260506082555 | 12 | 0 | 0.0 | 3.2 | 0.00 | 0.13 | 0.00 | 85 | 1019.4 |
| 20260506082055 | 12 | 0 | 0.0 | 3.2 | 0.00 | 0.13 | 0.00 | 85 | 1019.4 |
| 20260506081556 | 12 | 0 | 0.0 | 3.2 | 0.00 | 0.13 | 0.00 | 85 | 1019.4 |
| 20260506081055 | 13 | 0 | 0.0 | 4.8 | 0.00 | 0.13 | 0.00 | 85 | 1019.4 |
| 20260506080556 | 13 | 0 | 0.0 | 4.8 | 0.00 | 0.13 | 0.00 | 85 | 1019.4 |
| 20260506073104 | 13 | 0 | 0.0 | 6.4 | 0.00 | 0.28 | 0.00 | 84 | 1019.1 |
| 20260506072557 | 13 | 0 | 0.0 | 6.4 | 0.00 | 0.28 | 0.00 | 84 | 1019.0 |
| 20260506072053 | 13 | 0 | 0.0 | 6.4 | 0.00 | 0.28 | 0.00 | 84 | 1019.1 |
| 20260506071556 | 13 | 0 | 1.6 | 4.8 | 0.00 | 0.28 | 0.00 | 84 | 1019.1 |
| 20260506071053 | 13 | 0 | 0.0 | 4.8 | 0.00 | 0.28 | 0.00 | 85 | 1019.0 |
| 20260506070555 | 13 | 0 | 0.0 | 4.8 | 0.00 | 0.28 | 0.00 | 85 | 1018.9 |
| 20260506070116 | 13 | 0 | 0.0 | 6.4 | 0.00 | 0.28 | 0.00 | 85 | 1018.9 |
| 20260506062058 | 12 | 0 | 0.0 | 4.8 | 0.00 | 0.33 | 0.28 | 86 | 1018.7 |
| 20260506061601 | 13 | 0 | 0.0 | 6.4 | 0.00 | 0.33 | 0.28 | 86 | 1018.6 |
| 20260506061056 | 13 | 0 | 0.0 | 6.4 | 0.00 | 0.33 | 0.28 | 86 | 1018.6 |
| 20260506060556 | 13 | 0 | 0.0 | 6.4 | 0.00 | 0.33 | 0.28 | 86 | 1018.7 |
| 20260506051054 | 13 | 223 | 1.6 | 9.7 | 0.00 | 0.43 | 0.28 | 88 | 1018.4 |
| 20260506050555 | 13 | 224 | 3.2 | 9.7 | 0.00 | 0.43 | 0.28 | 89 | 1018.4 |
| 20260506050113 | 13 | 0 | 1.6 | 11.3 | 0.00 | 0.43 | 0.28 | 89 | 1018.4 |
| 20260506045056 | 13 | 232 | 3.2 | 9.7 | 0.00 | 0.51 | 0.28 | 89 | 1018.3 |
| 20260506044600 | 13 | 231 | 1.6 | 11.3 | 0.00 | 0.51 | 0.28 | 89 | 1018.3 |
| 20260506044054 | 13 | 246 | 1.6 | 11.3 | 0.00 | 0.51 | 0.28 | 89 | 1018.1 |
| 20260506043556 | 13 | 227 | 1.6 | 11.3 | 0.00 | 0.51 | 0.28 | 89 | 1018.1 |
| 20260506043057 | 13 | 0 | 1.6 | 11.3 | 0.00 | 0.51 | 0.28 | 89 | 1018.0 |
| 20260506042553 | 13 | 271 | 1.6 | 8.0 | 0.00 | 0.51 | 0.28 | 90 | 1018.0 |
| 20260506042054 | 13 | 0 | 0.0 | 6.4 | 0.00 | 0.51 | 0.28 | 89 | 1017.9 |
| 20260506041556 | 13 | 0 | 0.0 | 8.0 | 0.00 | 0.51 | 0.28 | 89 | 1017.8 |
| 20260506041055 | 13 | 200 | 0.0 | 8.0 | 0.00 | 0.51 | 0.28 | 89 | 1017.8 |
| 20260506040552 | 13 | 0 | 1.6 | 8.0 | 0.00 | 0.51 | 0.28 | 89 | 1017.8 |
| 20260506040100 | 13 | 236 | 0.0 | 6.4 | 0.00 | 0.51 | 0.28 | 90 | 1017.7 |
| 20260506035555 | 13 | 215 | 1.6 | 6.4 | 0.00 | 0.51 | 0.28 | 89 | 1017.6 |
| 20260506035054 | 13 | 0 | 0.0 | 8.0 | 0.00 | 0.51 | 0.28 | 89 | 1017.5 |
| 20260506034600 | 13 | 192 | 1.6 | 8.0 | 0.00 | 0.51 | 0.28 | 89 | 1017.5 |
| 20260506034054 | 13 | 246 | 1.6 | 16.1 | 0.00 | 0.51 | 0.28 | 89 | 1017.3 |
| 20260506033555 | 13 | 0 | 3.2 | 16.1 | 0.00 | 0.51 | 0.28 | 89 | 1017.2 |
| 20260506033103 | 13 | 214 | 0.0 | 12.9 | 0.00 | 0.51 | 0.28 | 89 | 1017.2 |
| 20260506032555 | 13 | 278 | 1.6 | 12.9 | 0.00 | 0.51 | 0.28 | 88 | 1017.2 |
| 20260506032056 | 13 | 215 | 3.2 | 12.9 | 0.00 | 0.51 | 0.28 | 88 | 1017.1 |
| 20260506031601 | 13 | 0 | 3.2 | 12.9 | 0.00 | 0.51 | 0.28 | 88 | 1017.0 |
| 20260506031056 | 13 | 214 | 1.6 | 11.3 | 0.00 | 0.51 | 0.28 | 88 | 1016.9 |